Location: Alpha Ridge Park
(39.3209°N, 76.9128°W)
Time: 23:42:48
(UTC-04:00)

Transit 2A - Pass Details

Date: 29 May 2019
Orbit: 593 x 966 km, 66.7° (Epoch: 18 June)

Event Time Altitude Azimuth Distance (km) Brightness Sun altitude
Rises 15:14:14 0° 337° (NNW) 3,544 9.4 57.3°
Reaches altitude 10° 15:17:05 10° 346° (NNW) 2,549 8.8 56.8°
Maximum altitude 15:22:28 36° 51° (NE) 1,293 7.3 55.9°
Drops below altitude 10° 15:27:21 10° 118° (ESE) 2,307 8.4 55.0°
Sets 15:29:48 0° 127° (SE) 3,167 9.0 54.5°
